Location: Conjunto Santa Maria
(19.9513°S, 43.9599°W)
Time: 12:13:12
(UTC+00:00)

Cosmos 1603 - Pass Details

Date: 21 January 2021
Orbit: 829 x 861 km, 71.0° (Epoch: 04 March)

Event Time Altitude Azimuth Distance (km) Brightness Sun altitude
Rises 21:54:57 0° 340° (NNW) 3,419 6.8 -3.9°
Reaches altitude 10° 21:57:24 10° 338° (NNW) 2,489 6.2 -4.4°
Maximum altitude 22:03:07 76° 253° (WSW) 892 4.1 -5.6°
Drops below altitude 10° 22:08:54 10° 167° (SSE) 2,506 6.3 -6.9°
Sets 22:11:22 0° 165° (SSE) 3,444 7.0 -7.4°
